Location: Cahas Mountain Overlook
(37.0833°N, 80.1000°W)
Time: 15:14:40
(UTC-04:00)

Vanguard 1 Rocket - Pass Details

Date: 23 January 2022
Orbit: 652 x 4223 km, 34.3° (Epoch: 27 May)

Event Time Altitude Azimuth Distance (km) Brightness Sun altitude
Rises 19:57:02 0° 280° (W) 5,300 12.5 -28.1°
Reaches altitude 10° 20:02:37 10° 263° (W) 3,581 11.4 -29.2°
Maximum altitude 20:07:24 16° 228° (SW) 2,540 10.2 -30.1°
Drops below altitude 10° 20:11:03 10° 190° (S) 2,573 9.8 -30.9°
Enters shadow 20:12:14 - 180° (S) 2,770 9.9 -31.1°
